This demonstration page uses our WeatherBlox Daily Observations layout. Learn more.

40.92945, -100.16068

Hourly Observations for December 6, 2015

Temp ( °F °C ) Dew Point ( °F °C ) Humidity (%) Winds ( mph kmh ) Pressure ( in mb ) Visibility ( mi km ) Precip ( " mm )
12:15 am 00:15 Clear 32 0.2 29 -1.9 86 86 WNW 12 19 30.48 1032 10 16.0934 N/A
12:35 am 00:35 Clear 33 0.3 29 -1.7 87 87 WNW 10 17 30.48 1032 10 16.0934 N/A
12:55 am 00:55 Clear 33 0.3 29 -1.7 87 87 WNW 9 15 30.48 1032 10 16.0934 N/A
1:15 am 01:15 Clear 32 0.2 29 -1.9 86 86 WNW 9 15 30.48 1032 10 16.0934 N/A
1:35 am 01:35 Clear 32 0.1 28 -2 86 86 WNW 10 17 30.5 1033 10 16.0934 N/A
1:55 am 01:55 Clear 32 0.1 29 -1.7 88 88 WNW 12 19 30.5 1033 10 16.0934 N/A
2:15 am 02:15 Clear 32 0.2 29 -1.8 87 87 WNW 12 19 30.5 1033 10 16.0934 N/A
2:35 am 02:35 Clear 32 0.1 29 -1.8 87 87 WNW 12 19 30.5 1033 10 16.0934 N/A
2:55 am 02:55 Clear 32 0 28 -2 87 87 WNW 12 19 30.5 1033 10 16.0934 N/A
3:15 am 03:15 Clear 33 0.3 28 -2 85 85 WNW 14 22 30.5 1033 10 16.0934 N/A
3:35 am 03:35 Clear 32 0.2 28 -2.2 84 84 WNW 13 20 30.5 1033 10 16.0934 N/A
3:55 am 03:55 Clear 32 -0.2 28 -2.5 85 85 WNW 12 19 30.5 1033 10 16.0934 N/A
4:15 am 04:15 Clear 31 -0.3 28 -2.5 85 85 WNW 12 19 30.5 1033 10 16.0934 N/A
4:35 am 04:35 Clear 31 -0.5 28 -2.5 87 87 WNW 10 17 30.5 1033 10 16.0934 N/A
4:55 am 04:55 Clear 31 -0.3 28 -2.4 86 86 NW 8 13 30.5 1033 10 16.0934 N/A
5:15 am 05:15 Clear 31 -0.6 28 -2.5 87 87 WNW 10 17 30.5 1033 10 16.0934 N/A
5:35 am 05:35 Clear 31 -0.8 27 -2.7 87 87 WNW 10 17 30.5 1033 10 16.0934 N/A
5:55 am 05:55 Clear 30 -1 27 -2.8 88 88 WNW 8 13 30.5 1033 10 16.0934 N/A
6:15 am 06:15 Clear 30 -1.1 27 -2.9 88 88 W 10 17 30.5 1033 10 16.0934 N/A
6:35 am 06:35 Clear 28 -2.2 25 -3.8 89 89 WNW 5 7 30.53 1034 10 16.0934 N/A
6:55 am 06:55 Clear 28 -2.2 26 -3.6 90 90 WNW 6 9 30.53 1034 10 16.0934 N/A
7:15 am 07:15 Clear 28 -2.4 25 -3.8 90 90 WNW 6 9 30.53 1034 10 16.0934 N/A
7:35 am 07:35 Clear 28 -2.2 26 -3.4 92 92 WNW 7 11 30.53 1034 10 16.0934 N/A
7:55 am 07:55 Sunny 28 -2.5 25 -4 90 90 WNW 7 11 30.53 1034 10 16.0934 N/A
8:15 am 08:15 Sunny 29 -1.5 27 -3 90 90 WNW 9 15 30.5 1033 10 16.0934 N/A
8:35 am 08:35 Sunny 30 -0.9 27 -2.6 88 88 WNW 9 15 30.5 1033 10 16.0934 N/A
8:55 am 08:55 Sunny 32 0 28 -2 87 87 WNW 13 20 30.5 1033 10 16.0934 N/A
9:15 am 09:15 Sunny 34 0.9 29 -1.8 82 82 WNW 9 15 30.5 1033 10 16.0934 N/A
9:35 am 09:35 Sunny 35 1.7 29 -1.5 80 80 WNW 13 20 30.48 1032 10 16.0934 N/A
9:55 am 09:55 Sunny 37 2.5 29 -1.5 75 75 WNW 9 15 30.48 1032 10 16.0934 N/A
10:15 am 10:15 Sunny 38 3.4 29 -1.4 71 71 WNW 8 13 30.48 1032 10 16.0934 N/A
10:35 am 10:35 Sunny 40 4.6 30 -1.2 66 66 W 7 11 30.45 1031 10 16.0934 N/A
10:55 am 10:55 Sunny 42 5.5 30 -1 63 63 WNW 6 9 30.45 1031 10 16.0934 N/A
11:15 am 11:15 Sunny 44 6.5 31 -0.6 61 61 WNW 5 7 30.45 1031 10 16.0934 N/A
11:35 am 11:35 Sunny 46 7.6 30 -1.1 54 54 Calm 30.42 1030 10 16.0934 N/A
11:55 am 11:55 Sunny 48 8.7 29 -1.6 49 49 W 6 9 30.39 1029 10 16.0934 N/A
12:15 pm 12:15 Sunny 50 10.1 29 -1.6 44 44 WNW 6 9 30.36 1028 10 16.0934 N/A
12:35 pm 12:35 Sunny 51 10.5 29 -1.4 44 44 Calm 30.36 1028 10 16.0934 N/A
12:55 pm 12:55 Sunny 53 11.5 30 -1.2 42 42 WSW 7 11 30.33 1027 10 16.0934 N/A
1:15 pm 13:15 Sunny 54 12.1 27 -2.8 36 36 SW 10 17 30.33 1027 10 16.0934 N/A
1:35 pm 13:35 Sunny 54 12.1 27 -2.9 35 35 SW 12 19 30.33 1027 10 16.0934 N/A
1:55 pm 13:55 Sunny 54 12.2 27 -2.8 35 35 SW 9 15 30.3 1026 10 16.0934 N/A
2:15 pm 14:15 Sunny 54 12.4 26 -3.1 34 34 SW 13 20 30.3 1026 10 16.0934 N/A
2:35 pm 14:35 Sunny 55 12.6 27 -2.8 34 34 SW 9 15 30.24 1024 10 16.0934 N/A
2:55 pm 14:55 Sunny 55 12.5 27 -2.7 35 35 SW 9 15 30.24 1024 10 16.0934 N/A
3:15 pm 15:15 Sunny 55 12.8 26 -3.4 32 32 SW 14 22 30.24 1024 10 16.0934 N/A
3:35 pm 15:35 Sunny 55 12.6 25 -3.7 32 32 SW 12 19 30.24 1024 10 16.0934 N/A
3:55 pm 15:55 Sunny 54 12.1 26 -3.5 34 34 SW 12 19 30.27 1025 10 16.0934 N/A
4:15 pm 16:15 Sunny 53 11.4 27 -3 37 37 SW 8 13 30.27 1025 10 16.0934 N/A
4:35 pm 16:35 Sunny 48 8.9 27 -3 43 43 SW 6 9 30.3 1026 10 16.0934 N/A
4:55 pm 16:55 Sunny 46 7.6 27 -2.8 48 48 SSW 5 7 30.3 1026 10 16.0934 N/A
5:15 pm 17:15 Clear 43 5.9 26 -3.5 51 51 S 6 9 30.27 1025 10 16.0934 N/A
5:35 pm 17:35 Clear 42 5.4 26 -3.3 54 54 SSW 6 9 30.3 1026 10 16.0934 N/A
5:55 pm 17:55 Clear 41 5.2 26 -3.4 54 54 SSW 6 9 30.3 1026 10 16.0934 N/A
6:15 pm 18:15 Clear 39 3.8 25 -3.8 58 58 SSW 6 9 30.3 1026 10 16.0934 N/A
6:35 pm 18:35 Clear 36 2.4 25 -4 63 63 S 7 11 30.3 1026 10 16.0934 N/A
6:55 pm 18:55 Clear 35 1.6 25 -3.7 68 68 S 7 11 30.33 1027 10 16.0934 N/A
7:15 pm 19:15 Clear 35 1.7 26 -3.4 69 69 S 6 9 30.33 1027 10 16.0934 N/A
7:35 pm 19:35 Clear 38 3.2 25 -4 60 60 S 6 9 30.3 1026 10 16.0934 N/A
7:55 pm 19:55 Clear 36 2.1 25 -4.1 64 64 S 8 13 30.3 1026 10 16.0934 N/A
8:15 pm 20:15 Clear 34 1 25 -4.1 69 69 S 9 15 30.3 1026 10 16.0934 N/A
8:35 pm 20:35 Clear 37 2.8 27 -2.9 66 66 S 8 13 30.27 1025 10 16.0934 N/A
8:55 pm 20:55 Clear 37 2.7 27 -3 66 66 S 7 11 30.24 1024 10 16.0934 N/A
9:15 pm 21:15 Clear 37 2.7 28 -2.5 69 69 S 7 11 30.24 1024 10 16.0934 N/A
9:35 pm 21:35 Clear 41 5 28 -2 61 61 SSW 12 19 30.24 1024 10 16.0934 N/A
9:55 pm 21:55 Clear 42 5.4 28 -2.2 58 58 SSW 8 13 30.24 1024 10 16.0934 N/A
10:15 pm 22:15 Clear 41 4.9 28 -2.1 61 61 S 8 13 30.24 1024 10 16.0934 N/A
10:35 pm 22:35 Clear 39 3.7 28 -2.4 65 65 S 8 13 30.21 1023 10 16.0934 N/A
10:55 pm 22:55 Clear 39 4 28 -2.4 63 63 S 5 7 30.21 1023 10 16.0934 N/A
11:15 pm 23:15 Clear 42 5.3 28 -2.4 58 58 SW 3 6 30.24 1024 10 16.0934 N/A
11:35 pm 23:35 Clear 41 5.2 27 -2.6 57 57 SSW 5 7 30.24 1024 10 16.0934 N/A
11:55 pm 23:55 Clear 39 3.8 27 -2.6 63 63 SSW 12 19 30.21 1023 10 16.0934 N/A

Powered by AerisWeather